Tracking 33199 objects as of 16-Feb-2026
HD Live streaming from Space Station
objects crossing your sky now

STARLINK-5706

Track STARLINK-5706 now!
10-day predictions
STARLINK-5706 is classified as:


NORAD ID: 55488
Int'l Code: 2023-015AR
Perigee: 565.2 km
Apogee: 567.3 km
Inclination: 43.0 °
Period: 95.8 minutes
Semi major axis: 6937 km
RCS: Unknown
Launch date: February 2, 2023
Source: United States (US)
Launch site: AIR FORCE EASTERN TEST RANGE (AFETR)
Your satellite tracking list
Your tracking list is empty




NASA's NSSDC Master Catalog

Two Line Element Set (TLE):
1 55488U 23015AR  26047.20061366 -.00000104  00000-0  73663-5 0  9990
2 55488  43.0039  95.5534 0001508 268.1922  91.8748 15.02536598167371
Source of the keplerian elements: AFSPC